STARS-C (41895 NORAD) Tracking and Keplerian Element Data

This shows tracking and keplerian element data for the satellite.

Feedback or suggestion? Click here.




ElementValue
Catalog41895
NameSTARS-C
Epoch Orbit6873
Epoch Day61.52581171
Epoch Year2018
RAAN142.6546
Inclination51.6547
Eccentricity0.0011212
Argument of Perigee346.6197
Mean Anonmoly16.6343
Mean Motion16.43666377
Decay Rate0.12025536
L11 41895U 98067KR 18061.52581171 .12025536 12682-4 40347-3 0 9991
L22 41895 51.6547 142.6546 0011212 346.6197 16.6343 16.43666377 68734

Live tracking and technical data element details for STARS-C (NORAD 41895). STARS-C can be tracked NOW for your location showing map with azimuth and elevation plus other details from your city location.

Track the satellite on the map from your city or location and see movement details for azimuth, elevation, latitude, longitude, range, height, and movement on the map or in text.







IsCatalogInMostPopularTable: catalog: 41895, numindb: 115
Update: records affected: 1



GetName: 41895 STARS-C

Hit Count: updated at: Mon, 19 Nov 2018 13:39:05 GMT